User: anonymous   Login
Location: Mascot Post Office (historical)
(40.2645°N, 99.5462°W)
Time: 18:59:04
(UTC+00:00)
Language:

Cosmos 1833 Rocket - Orbit

View from above orbital plane
View from above orbital plane
View from above satellite
View from above satellite

Ground track
Ground track

The orbit data is extracted from the following two-line orbital elements,

1 17590U 87027B   20263.16750140 -.00000157 +00000-0 -54663-4 0  9996
2 17590 071.0035 164.0526 0007369 283.3587 076.6715 14.16789312732438
Epoch (UTC): 19 September 2020 04:01:12
Eccentricity: 0.0007369
inclination: 71.0035°
perigee height: 831 km
apogee height: 841 km
right ascension of ascending node: 164.0526°
argument of perigee: 283.3587°
revolutions per day: 14.16789312
mean anomaly at epoch: 76.6715°
orbit number at epoch: 73243

The dashed part of the orbit path shows where the satellite is in the earth's shadow,  

DLR